Regional Weather Roundup
Issued by NWS Kansas City/Pleasant Hill, MO

Home | Current Version | Previous Version | Text Only | Print | Product List | Glossary On
Versions: 1 2 3 4 5 6 7 8 9 10 11 12 13 14 15 16 17 18 19 20 21 22 23 24 25 26 27 28 29 30 31 32 33 34 35 36 37 38 39 40 41 42 43 44 45 46 47 48 49 50
000
ASUS43 KEAX 300910
RWREAX

WEATHER ROUNDUP FOR EASTERN KANSAS AND NORTHWEST MISSOURI
NATIONAL WEATHER SERVICE KANSAS CITY/PLEASANT HILL MO
400 AM CDT SAT APR 30 2016

KSZ040-057-103>105-MOZ028-029-037-043-301000-
...KANSAS CITY METROPOLITAN AREA...

CITY           SKY/WX    TMP DP  RH WIND       PRES   REMARKS
K.C. INTL      LGT RAIN  53  52  96 E13       29.67F VSB<1/4
K.C. DOWNTOWN  LGT RAIN  56  54  93 E8        29.66F FOG
LEES SUMMIT    CLOUDY    57  56  96 E7        29.67F
OLATHE - IXD   HVY RAIN  58  57  97 SE12      29.65F FOG
OLATHE - OJC   CLOUDY    57  56  96 E9        29.65F
LAWRENCE       LGT RAIN  54  54 100 E7        29.65S FOG

$$

MOZ001>008-011>017-020>025-030>033-038>040-044>046-053-054-301000-
...NORTHERN AND CENTRAL MISSOURI...

CITY           SKY/WX    TMP DP  RH WIND       PRES   REMARKS
ST. JOSEPH     LGT RAIN  51  49  92 E15G23    29.69F FOG
MOSBY          RAIN      54  54 100 NE10G17   29.68F
WARRENSBURG    CLOUDY    59  55  88 E12       29.68F
WHITEMAN AFB   CLOUDY    57  57 100 SE9G17    29.67F
CLINTON        CLOUDY    59  57  94 SE9G17    29.68F
SEDALIA        CLOUDY    59  57  93 SE15      29.72S
WARSAW         NOT AVBL
CHILLICOTHE      N/A     52  50  93 NE8       29.76F
KIRKSVILLE     LGT RAIN  49  46  90 E21G29    29.80F FOG

$$

MOZ041-047>049-056>058-063>065-088>090-097-301000-
...EASTERN AND SOUTHERN MISSOURI...

CITY           SKY/WX    TMP DP  RH WIND       PRES   REMARKS
ST. LOUIS INTL LGT RAIN  59  56  89 E10       29.88R FOG
SPIRIT OF STL  RAIN      58  57  97 E7        29.85F FOG
COLUMBIA       LGT RAIN  58  57  97 SE10      29.77F
JEFFERSON CITY RAIN      58  56  93 E16       29.77F
ROLLA          RAIN      57  56  96 E14       29.76F FOG
OSAGE BEACH    CLOUDY    57  48  72 E7        29.74F
SPRINGFIELD    CLOUDY    62  59  90 SE10      29.62F
JOPLIN         CLOUDY    61  60  97 SW5       29.65R
WEST PLAINS    RAIN      59  57  93 E7        29.79F FOG

$$

IAZ060-094-KSZ022-034>040-054-083-096-NEZ052-066-093-301000-
...KANSAS...SOUTHEAST NEBRASKA AND IOWA...

CITY           SKY/WX    TMP DP  RH WIND       PRES   REMARKS
TOPEKA         RAIN      55  53  93 E10       29.63F FOG
MANHATTAN      LGT RAIN  52  49  89 N3        29.64F
EMPORIA        CLOUDY    59  58  96 S6        29.62S
CHANUTE        CLOUDY    61  58  90 SE5       29.63F
WICHITA        CLOUDY    52  50  93 NW13      29.67R
OMAHA          LGT RAIN  46  44  93 E17G26    29.77F FOG
LINCOLN        LGT RAIN  46  44  93 E15       29.75F
FALLS CITY     HVY RAIN  50  48  93 E16G28    29.67F FOG
LAMONI         CLOUDY    46  45  96 E15G24    29.81F
DES MOINES     LGT RAIN  46  41  82 E18G24    29.89F

$$




USA.gov is the U.S. government's official web portal to all federal, state and local government web resources and services.